{"data":{"norad_id":63997,"intl_designator":"2025-101D","name":"STARLINK-34165","alt_names":[],"object_type":"PAYLOAD","status":"ACTIVE","operator":null,"country":"US","launch_date":"2025-05-14","launch_site_code":"AFETR","launch_vehicle":null,"mission":null,"orbit_class":"UNKNOWN","rcs_meters":null,"size_class":null,"mass_kg":null,"dimensions":null,"purposes":["comms"],"wikipedia_slug":null,"has_3d_model":false,"image_url":null,"decayed_at":null,"tle_current":{"epoch":"2026-09-20T21:35:47.135040Z","epoch_age_seconds":109035,"freshness":"FRESH","line1":"1 63997U 25101D   26263.89985110  .00008753  00000+0  32721-3 0  9993","line2":"2 63997  43.0001 335.2156 0001656 276.6960  83.3704 15.27582623 76912","mean_motion":15.27582623,"eccentricity":0.0001656,"inclination_deg":43.0001,"raan_deg":335.2156,"arg_perigee_deg":276.696,"mean_anomaly_deg":83.3704,"bstar":0.00032721,"rev_number":7691,"period_min":94.266586848965,"perigee_km":481.90503072842,"apogee_km":484.17745296212,"semimajor_km":6861.1782418453,"source":"CELESTRAK","updated_at":"2026-09-21T09:00:35.180322Z"}}}